HAWK-12C

导读

HAWK-12C是由美国HawkEye 360公司运营的HAWK星座卫星之一,于2025年6月26日成功发射入轨,运行在近地低地球轨道上。该卫星主要执行无线电信号侦察任务,可收集全球特定无线电信号,完成高精度射频测绘与分析,能监测射频频谱、识别信号干扰,还可支持交通网络动态监控、应急信标探测定位,服务于民用安全与商业多领域需求。

Basic Information
目录编号:
64621
目录名称:
HAWK-12C
国际标识:
2025-138A
轨道中心:
EARTH
卫星名称:
HAWK-12C
卫星全名:
HAWK-12C
卫星状态:
在轨 (已飞行436 天)
发射日期:
2025-06-26 UTC
国别 :
美国 (US)
星等 :
--
Orbit Information
数据来源 国际轨道数据
星历时间: 2026-09-04T18:46:20+0800
1天前
查看轨道信息
半长轴: 6887.849km
偏心率: 0.0012537
轨道倾角: 97.439°
近地点辐角 221.405°
升交点赤经 248.591°
平近点角 138.624°
近地点: 501.076km
远地点: 518.348km
周期: 94.817分钟
每日圈数: 15.187188
Detailed Information
使用方式:
暂无
2D Orbit Map
3D Orbit Map
Orbit Altitude Analysis Chart
Orbit Inclination Analysis Chart
Orbit Comprehensive Analysis Chart
View Comprehensive Chart
Conjunction Data List
Event ID Objects TCA Miss Dist (km) Collision Risk Probability Collision Risk Index (CRI) Action
CDM_260906-222406-454406-462122
HAWK-12C (64621)
2026-09-06T
22:24:58+0000
1.101 km
极远距离
1.733079E-5 中风险 0.6
CDM_260906-174106-462106-674023
HAWK-12C (64621)
2026-09-06T
17:41:52+0000
1.557 km
极远距离
4.181833E-6 低风险 0.47
CDM_260905-184506-054106-462121
UMBRA-09 (60541)
HAWK-12C (64621)
2026-09-05T
18:45:41+0000
2.640 km
极远距离
1.304382E-6 低风险 0.37